Location: Bodest
(46.3000°N, 22.5667°E)
Time: 21:05:08
(UTC+00:00)

Cosmos 2082 - Pass Details

Date: 16 October 2021
Orbit: 835 x 853 km, 71.0° (Epoch: 29 November)

Event Time Altitude Azimuth Distance (km) Brightness Sun altitude
Rises 16:25:07 0° 335° (NNW) 3,397 7.1 -8.3°
Reaches altitude 10° 16:27:36 10° 338° (NNW) 2,458 6.4 -8.7°
Maximum altitude 16:33:12 67° 61° (ENE) 906 3.7 -9.7°
Drops below altitude 10° 16:38:46 10° 144° (SE) 2,442 5.8 -10.7°
Sets 16:41:13 0° 147° (SSE) 3,373 6.5 -11.1°
